Location: *
(48.8489°N, 2.3218°E)
Time: 17:26:32
(UTC+00:00)

Cosmos 1833 Rocket - Pass Details

Date: 23 August 2019
Orbit: 834 x 838 km, 71.0° (Epoch: 22 September)

Event Time Altitude Azimuth Distance (km) Brightness Sun altitude
Rises 19:51:50 0° 168° (SSE) 3,377 5.4 -9.8°
Reaches altitude 10° 19:54:39 10° 156° (SSE) 2,447 4.6 -10.2°
Maximum altitude 19:59:08 25° 103° (ESE) 1,631 3.7 -10.9°
Drops below altitude 10° 20:03:37 10° 50° (NE) 2,460 5.0 -11.5°
Sets 20:06:27 0° 37° (NE) 3,398 5.8 -11.9°
